Weather History for Lincoln, NE

Change the Weather History Date:

Thursday, October 21, 2010

  Actual Average Record
Temperature  
Mean Temperature 50 °F 51 °F  
Max Temperature 68 °F 64 °F 89 °F (1899)
Min Temperature 32 °F 39 °F 20 °F (1987)
Degree Days  
Heating Degree Days 15 14  
Month to date heating degree days 177 219  
Since 1 July heating degree days 233 317  
Cooling Degree Days 0 0  
Month to date cooling degree days 6 12  
Year to date cooling degree days 1302 1170  
Growing Degree Days 1 (Base 50)    
Moisture  
Dew Point 32 °F    
Average Humidity 56    
Maximum Humidity 89    
Minimum Humidity 22    
Precipitation  
Precipitation 0.00 in 0.07 in 0.75 in (1941)
Month to date precipitation 0.05 1.42  
Year to date precipitation 32.13 26.02  
Snow  
Snow 0.00 in 0.00 in - ()
Month to date snowfall 0.0 0.3  
Since 1 July snowfall 0.0 0.3  
Snow Depth 0.00 in    
Sea Level Pressure  
Sea Level Pressure 30.05 in    
Wind  
Wind Speed 5 mph (ENE)    
Max Wind Speed 13 mph    
Max Gust Speed 16 mph    
Visibility 10 miles    
Events      
T = Trace of Precipitation, MM = Missing Value Source: NWS Daily Summary

Daily Weather History Graph

Daily Weather History Graph

Search for Another Location

Airport:

Trip Planner

Search our weather history database for the weather conditions in past years. The results will help you decide how hot, cold, wet, or windy it might be!

Date:

Astronomy

Oct. 21, 2010 Rise Set
Actual Time 7:44 AM CDT 6:37 PM CDT
Civil Twilight 7:17 AM CDT 7:05 PM CDT
Nautical Twilight 6:45 AM CDT 7:37 PM CDT
Astronomical Twilight 6:13 AM CDT 8:09 PM CDT
Moon 5:38 PM CDT (10/21) 6:25 AM CDT (10/21)
Length of Visible Light 11h 48m
Length of Day
10h 52m
Waxing Gibbous, 98% of the Moon is Illuminated
Oct 21
Waxing Gibbous
Oct 22
Full
Oct 30
Last Quarter
Nov 5
New
Nov 13
First Quarter

Hourly Weather History & Observations

Time (CDT) Temp. Windchill Dew Point Humidity Pressure Visibility Wind Dir Wind Speed Gust Speed Precip Events Conditions
12:54 AM 39.9 °F 37.8 °F 34.0 °F 79% 30.03 in 10.0 mi North 3.5 mph - N/A   Clear
1:54 AM 43.0 °F 41.3 °F 36.0 °F 76% 30.04 in 10.0 mi NW 3.5 mph - N/A   Clear
2:54 AM 43.0 °F 38.8 °F 36.0 °F 76% 30.05 in 10.0 mi North 6.9 mph - N/A   Clear
3:54 AM 39.9 °F 37.8 °F 35.1 °F 83% 30.05 in 10.0 mi NNW 3.5 mph - N/A   Clear
4:54 AM 39.9 °F - 34.0 °F 79% 30.07 in 10.0 mi Calm Calm - N/A   Clear
5:54 AM 37.0 °F - 32.0 °F 82% 30.09 in 10.0 mi Calm Calm - N/A   Clear
6:54 AM 34.0 °F - 30.9 °F 89% 30.11 in 10.0 mi Calm Calm - N/A   Clear
7:54 AM 35.1 °F 31.0 °F 32.0 °F 89% 30.11 in 7.0 mi NNW 4.6 mph - N/A   Clear
8:54 AM 39.9 °F 37.8 °F 35.1 °F 83% 30.13 in 10.0 mi North 3.5 mph - N/A   Clear
9:54 AM 48.0 °F - 39.0 °F 71% 30.14 in 9.0 mi Calm Calm - N/A   Clear
10:54 AM 55.9 °F - 32.0 °F 40% 30.12 in 10.0 mi ENE 10.4 mph - N/A   Clear
11:54 AM 59.0 °F - 30.9 °F 35% 30.11 in 10.0 mi ENE 6.9 mph - N/A   Clear
12:54 PM 63.0 °F - 27.0 °F 26% 30.10 in 10.0 mi ESE 4.6 mph - N/A   Clear
1:54 PM 66.0 °F - 27.0 °F 23% 30.06 in 10.0 mi ENE 8.1 mph - N/A   Clear
2:54 PM 66.9 °F - 28.0 °F 23% 30.04 in 10.0 mi ESE 8.1 mph - N/A   Clear
3:54 PM 68.0 °F - 30.0 °F 24% 30.02 in 10.0 mi ESE 9.2 mph - N/A   Clear
4:54 PM 66.9 °F - 30.9 °F 26% 30.00 in 10.0 mi SE 9.2 mph - N/A   Clear
5:54 PM 64.0 °F - 30.9 °F 29% 30.00 in 10.0 mi ESE 9.2 mph - N/A   Clear
6:54 PM 59.0 °F - 32.0 °F 36% 30.01 in 10.0 mi ESE 5.8 mph - N/A   Clear
7:54 PM 57.0 °F - 32.0 °F 39% 30.01 in 10.0 mi ESE 5.8 mph - N/A   Clear
8:54 PM 53.1 °F - 32.0 °F 45% 30.01 in 10.0 mi Calm Calm - N/A   Clear
9:54 PM 53.1 °F - 32.0 °F 45% 30.00 in 10.0 mi East 5.8 mph - N/A   Partly Cloudy
10:54 PM 51.1 °F - 32.0 °F 48% 30.00 in 10.0 mi East 3.5 mph - N/A   Scattered Clouds
11:54 PM 50.0 °F - 33.1 °F 52% 29.98 in 10.0 mi Calm Calm - N/A   Partly Cloudy